SCP
0 0 0 0 0 0 0 0 0 0 0 -0 -0 -0 0 -0 -0 0 -0 0 -0 -0 -0 -0 -0 -0 -0 -0 -0 -0 -0 -0 -0 -0 -0 -0 -0 -0 -0 -0 -0 -0 -0 -0 -0 -0 -0 -0 -0
0 0 0 0 0 0 0 0 0 0 0 -0 -0 0 0 -0 -0 0 0 0 -0 -0 -0 -0 -0 -0 -0 -0 -0 -0 -0 -0 -0 -0 -0 -0 -0 -0 -0 -0 -0 -0 -0 -0 -0 -0 -0 -0 -0
0 0 0 0 0 -0 -0 -0 -0 -0 0 0 0 -0 0 -0 0 -0 -0 0 -0 -0 -0 -0 -0 -0 -0 -0 -0 -0 -0 -0 -0 -0 -0 -0 -0 -0 -0 -0 -0 -0 -0 -0 -0 -0 -0 -0 -0
0 0 0 -0 0 0 0 -0 -0 -0 0 -0 -0 0 0 0 -0 -0 -0 -0 -0 -0 -0 -0 -0 -0 -0 -0 -0 -0 -0 -0 -0 -0 -0 -0 -0 -0 -0 -0 -0 -0 -0 -0 -0 -0 -0 -0 -0
0 0 0 0 -0 0 -0 -0 -0 -0 -0 -0 0 0 -0 0 -0 -0 -0 -0 -0 -0 -0 -0 -0 -0 -0 -0 -0 -0 -0 -0 -0 -0 -0 -0 -0 -0 -0 -0 -0 -0 -0 -0 -0 -0 -0 -0 -0
0 0 0 -0 -0 -0 -0 -0 -0 -0 -0 -0 -0 -0 -0 -0 -0 -0 -0 -0 -0 -0 -0 -0 -0 -0 -0 -0 -0 -0 -0 -0 -0 -0 -0 -0 -0 -0 -0 -0 -0 -0 -0 -0 -0 -0 -0 -0 -0
0 -0 0 -0 0 -0 0 -0 0 -0 -0 -0 -0 -0 -0 -0 -0 -0 -0 -0 -0 -0 -0 -0 -0 -0 -0 -0 -0 -0 -0 -0 -0 -0 -0 -0 -0 -0 -0 -0 -0 -0 -0 -0 -0 -0 -0 -0 -0
0 0 -0 0 0 0 0 0 0 0 0 0 -0 0 -0 -0 -0 -0 -0 0 0 -0 -0 -0 -0 0 0 0 -0 -0 -0 -0 -0 -0 -0 -0 -0 -0 -0 -0 -0 -0 -0 -0 -0 -0 -0 -0 -0
0 0 0 0 0 0 0 0 0 0 0 0 -0 0 0 -0 -0 -0 0 0 0 0 0 0 0 0 0 0 0 -0 -0 -0 -0 -0 -0 -0 0 0 0 -0 -0 -0 -0 -0 -0 -0 -0 -0 0
0 0 0 0 0 0 0 0 0 0 0 0 0 -0 0 -0 -0 -0 0 0 0 0 0 0 0 0 0 0 0 0 0 0 0 0 0 0 0 0 0 0 0 -0 -0 -0 -0 -0 -0 0 0
0 0 0 0 0 0 0 0 0 0 0 0 -0 -0 -0 -0 -0 -0 0 0 0 0 0 0 0 0 0 0 0 0 0 0 0 0 0 0 0 0 0 0 0 0 0 0 0 0 0 0 0
0 0 0 0 0 0 0 0 0 0 0 0 0 0 -0 -0 -0 -0 0 0 0 0 0 0 0 0 0 0 0 0 0 0 0 0 0 0 0 0 0 0 0 0 0 0 0 0 0 0 0
0 0 0 0 0 0 0 0 0 0 0 -0 0 0 -0 0 0 0 0 0 0 0 0 0 0 0 0 0 0 0 0 0 0 0 0 0 0 0 0 0 0 0 0 0 0 0 0 0 0
0 0 0 0 0 0 0 0 0 0 0 0 0 0 0 0 0 0 0 0 0 0 0 0 0 0 0 0 0 0 0 0 0 0 0 0 0 0 0 0 0 0 0 0 0 0 0 0 0
0 0 0 0 0 0 0 0 0 0 0 0 0 0 0 0 0 0 0 0 0 0 0 0 0 0 0 0 0 0 0 0 0 0 0 0 0 0 0 0 0 0 0 0 0 0 0 0 0
0 0 0 0 0 0 0 0 0 0 0 0 0 0 0 0 0 0 0 0 0 0 0 0 0 0 0 0 0 0 0 0 0 0 0 0 0 0 0 0 0 0 0 0 0 0 0 0 0
0 0 0 0 0 0 0 0 0 0 0 0 0 0 0 0 0 0 0 0 0 0 0 0 0 0 0 0 0 0 0 0 0 0 0 0 0 0 0 0 0 0 0 0 0 0 0 0 0
0 0 0 0 0 0 0 0 0 0 0 0 0 0 0 0 0 0 0 0 0 0 0 0 0 0 0 0 0 0 0 0 0 0 0 0 0 0 0 0 0 0 0 0 0 0 0 0 0
0 0 0 0 0 0 0 0 0 0 0 -0 0 0 0 0 0 0 0 0 0 0 0 0 0 0 0 0 0 0 0 0 0 0 0 0 0 0 0 0 0 0 0 0 0 0 0 0 0
0 0 0 0 0 0 0 0 0 0 0 0 0 0 0 0 0 0 0 0 0 0 0 0 0 0 0 0 0 0 0 0 0 0 0 0 0 0 0 0 0 0 0 0 0 0 0 0 0
0 0 0 0 0 -0 0 -0 -0 0 0 0 0 0 0 0 0 0 0 0 0 0 0 0 0 0 0 0 0 0 0 0 0 0 0 0 0 0 0 0 0 0 0 0 0 0 0 0 0
0 0 0 0 0 0 0 -0 0 0 -0 0 0 0 0 0 0 0 0 0 0 0 0 0 0 0 0 0 0 0 0 0 0 0 0 0 0 0 0 0 0 0 0 0 0 0 0 0 0
0 0 0 0 0 0 -0 0 -0 -0 0 0 0 0 0 0 0 0 0 0 0 0 0 0 0 0 0 0 0 0 0 0 0 0 0 0 0 0 0 0 0 0 0 0 0 0 0 0 0
0 0 0 0 0 0 0 0 -0 0 0 0 0 0 0 0 0 0 0 0 0 0 0 0 0 0 0 0 0 0 0 0 0 0 0 0 0 0 0 0 0 0 0 0 0 0 0 0 0
0 0 0 0 0 0 0 0 0 0 0 0 0 0 0 0 0 0 0 0 0 0 0 0 0 0 0 0 0 0 0 0 0 0 0 0 0 0 0 0 0 0 0 0 0 0 0 0 0
0 0 0 0 0 0 0 0 0 0 0 0 0 0 0 0 0 0 0 0 0 0 0 0 0 0 0 0 0 0 0 0 0 0 0 0 0 0 0 0 0 0 0 0 0 0 0 0 0
0 0 0 0 0 0 0 0 0 0 0 0 0 0 0 0 0 0 0 0 0 0 0 0 0 0 0 0 0 0 0 0 0 0 0 0 0 0 0 0 0 0 0 0 0 0 0 0 0
0 0 0 0 0 0 0 0 0 0 0 0 0 0 0 0 0 0 0 0 0 0 0 0 0 -0 -0 0 0 0 0 0 0 0 0 0 0 0 0 0 0 0 0 0 0 0 0 0 0
0 0 0 0 0 0 0 0 0 0 0 0 0 0 0 0 0 0 0 0 0 0 0 0 -0 -0 -0 0 0 0 0 0 0 0 0 0 0 0 0 0 0 0 0 0 0 0 0 0 0
0 0 0 0 0 0 0 0 0 0 0 0 0 0 0 0 0 0 0 0 0 0 0 0 -0 -0 -0 0 0 0 0 0 0 0 0 0 0 0 0 0 0 0 0 0 0 0 0 0 0
Wind_Speed_500mb
4 4 5 13 3 4 9 9 10 12 9 12 16 15 8 18 11 6 35 19 35 32 34 32 29 25 23 19 17 16 15 18 19 20 22 23 23 23 24 25 24 37 27 24 27 36 37 37 39
2 3 7 13 4 4 8 16 9 12 22 16 7 4 8 7 15 21 34 31 36 34 35 33 32 27 22 19 15 12 14 15 16 18 20 22 22 23 22 23 32 35 24 19 21 28 34 37 38
3 4 8 5 6 10 7 6 17 25 17 11 6 3 9 9 14 25 10 38 40 30 34 34 32 28 24 20 15 11 11 12 13 16 18 20 21 21 21 26 33 29 21 16 14 25 31 33 36
8 4 11 5 9 15 9 13 32 21 7 7 1 4 10 11 14 21 26 38 35 31 32 32 31 29 25 22 19 15 12 12 12 14 16 18 19 19 21 25 30 23 17 17 17 24 27 29 32
5 9 7 7 6 9 10 14 15 16 25 22 10 5 13 11 25 23 31 38 34 31 29 30 32 30 27 24 20 15 12 11 10 10 12 15 16 17 19 22 24 21 17 14 17 22 24 26 30
8 7 7 10 9 12 7 13 10 14 20 19 8 8 11 7 14 24 33 39 30 34 29 32 35 31 28 25 23 19 15 10 9 8 10 12 13 14 16 16 15 12 15 18 18 19 21 24 29
6 5 14 16 6 7 9 16 12 13 19 15 9 6 13 12 17 29 31 33 31 30 32 30 37 35 31 28 25 21 17 12 9 7 7 9 11 11 12 12 10 11 15 17 16 18 20 25 29
7 5 14 11 9 4 12 15 2 8 5 23 16 4 11 18 24 27 30 34 33 33 32 29 40 38 36 33 29 24 20 17 12 10 7 7 8 9 10 11 12 14 15 15 16 17 20 23 26
3 6 7 11 9 2 19 8 6 7 7 11 12 6 15 20 25 29 29 34 39 41 36 36 34 37 39 36 32 27 23 20 16 12 9 5 6 5 8 12 13 15 15 16 16 18 19 20 20
6 5 10 15 19 12 14 8 12 6 13 13 15 19 20 22 20 33 39 43 46 44 42 40 38 38 38 38 36 33 31 27 23 20 19 15 9 2 7 14 18 19 19 18 17 16 16 17 17
9 5 11 22 18 12 11 3 15 6 11 22 32 38 31 32 27 33 39 41 46 46 41 46 43 42 41 38 39 41 36 32 30 29 29 22 17 9 10 12 14 15 16 15 15 13 10 8 9
6 15 6 9 7 4 3 10 10 23 30 13 4 9 36 33 37 38 41 43 47 50 48 47 47 47 43 45 45 39 36 38 41 34 31 26 23 19 15 16 16 17 15 14 15 12 12 10 7
6 11 3 3 2 4 9 15 16 35 30 23 29 25 24 33 35 38 40 40 45 50 53 54 55 51 50 53 49 46 40 43 44 41 41 33 31 27 23 21 19 16 19 22 19 19 18 15 12
9 12 11 6 11 8 5 13 7 14 8 25 33 34 34 35 40 39 42 50 53 55 54 55 58 59 56 57 53 54 51 50 50 47 46 44 39 35 32 28 27 28 28 27 26 24 22 20 16
4 8 15 24 18 2 4 13 21 54 34 29 21 29 36 38 42 48 49 53 58 62 61 64 67 65 70 61 55 53 55 57 55 58 50 52 48 42 38 41 38 39 39 32 33 31 28 25 22
8 6 5 8 21 7 7 11 14 10 6 20 23 28 39 45 44 54 55 56 57 62 69 68 72 68 75 74 69 56 50 50 51 55 55 57 55 53 48 47 47 47 45 44 42 37 35 32 27
10 8 14 8 13 8 12 9 8 8 9 18 23 27 30 34 40 46 53 59 65 64 69 75 76 75 73 75 77 73 72 60 57 58 54 59 59 58 56 56 54 54 54 50 46 41 40 39 35
10 8 13 4 12 8 12 20 21 51 49 46 47 47 49 50 51 50 52 59 60 70 68 74 76 78 74 75 78 76 76 75 73 70 65 61 63 64 63 63 65 62 63 61 56 48 46 45 43
14 11 17 16 13 10 13 21 21 38 45 54 53 53 56 59 54 51 58 58 56 65 71 70 76 80 79 79 84 84 83 80 82 82 74 66 69 72 70 69 67 73 60 72 64 54 58 58 55
2 10 16 16 14 4 15 25 31 28 36 54 50 60 64 58 52 44 48 62 65 61 69 73 80 82 81 79 82 86 84 83 82 83 82 75 70 78 77 75 72 76 67 71 72 61 63 63 64
11 14 14 16 6 11 12 15 24 14 32 46 51 58 58 54 53 47 43 56 68 65 62 72 81 81 80 77 80 82 80 80 84 86 85 84 78 82 84 85 80 74 78 71 73 73 65 70 70
11 7 17 7 7 7 6 11 12 25 31 19 55 64 57 44 41 37 39 37 56 63 59 58 72 77 77 75 79 84 87 88 89 86 80 72 76 85 85 88 89 77 77 80 83 72 81 74 78
4 8 6 4 4 12 13 9 13 18 16 20 27 41 39 29 22 22 27 32 42 46 56 53 59 71 75 77 78 79 82 84 86 84 77 73 68 78 88 90 88 85 87 69 79 83 92 83 94
15 9 7 1 3 12 16 15 10 14 9 15 5 13 12 17 17 18 19 20 30 49 48 48 52 59 67 74 76 78 81 83 81 77 79 73 65 65 83 88 90 87 91 87 90 81 99 82 100
5 9 3 4 0 16 3 8 13 10 11 7 21 27 16 12 12 12 13 14 18 22 27 35 41 50 58 66 71 73 77 80 77 75 80 76 68 65 72 84 90 98 93 86 74 82 78 98 100
19 14 11 13 9 9 7 14 10 11 9 17 30 37 21 28 25 24 27 28 23 20 19 19 21 30 41 50 57 63 69 74 73 70 77 76 69 64 64 75 81 79 82 81 83 87 77 81 89
12 17 9 7 4 5 10 16 20 21 25 23 41 39 42 21 20 28 32 25 21 16 12 8 9 14 22 29 38 47 55 61 67 71 72 75 68 62 59 64 70 77 84 78 80 86 85 74 82
10 4 6 5 6 9 13 13 18 21 12 14 12 27 36 29 21 27 26 22 21 21 18 13 8 5 7 13 20 28 36 46 55 62 69 66 68 62 55 60 67 68 75 71 75 73 78 83 85
9 8 10 9 10 10 7 11 5 16 11 14 20 32 28 14 20 22 22 28 26 21 10 6 3 4 7 12 17 24 30 38 44 51 59 64 67 62 54 53 56 63 67 69 79 73 79 71 88
12 21 19 9 8 9 7 23 7 14 14 21 24 27 24 17 5 15 24 28 27 11 5 5 9 13 14 18 24 30 33 39 45 47 52 58 59 58 55 53 54 58 59 66 67 75 70 81 82
Wind_Direction_500mb
157 85 9 300 269 201 120 97 74 95 130 63 37 37 353 32 20 99 144 154 172 184 171 168 166 158 150 143 128 114 97 83 80 79 77 81 88 96 102 98 96 103 98 81 80 84 88 87 87
210 104 359 274 249 225 81 119 145 123 92 100 82 347 308 103 69 130 154 144 158 188 169 171 169 165 159 154 138 110 90 82 83 82 79 77 77 82 89 92 96 98 108 92 83 89 89 85 88
142 129 278 231 290 40 95 84 124 88 108 132 144 198 3 76 93 137 202 151 159 181 172 174 174 170 166 165 157 131 106 98 96 91 81 78 79 82 89 96 102 108 112 97 94 93 86 85 90
98 281 260 290 282 73 40 86 107 118 115 138 79 153 120 146 128 176 166 158 159 171 179 176 180 178 175 175 176 163 133 128 116 106 91 82 79 82 89 109 111 132 134 131 97 92 86 85 93
156 276 269 220 324 97 89 70 139 160 153 156 162 149 122 136 178 172 164 162 165 160 190 184 184 185 182 182 182 175 151 132 131 119 100 90 84 84 97 119 125 149 148 112 106 94 88 89 94
260 263 276 234 218 98 101 140 172 175 140 107 158 282 106 215 190 163 167 163 171 177 185 188 188 188 188 189 190 192 180 166 156 143 117 99 88 88 102 124 136 128 123 125 109 98 93 94 99
269 224 263 298 6 107 149 147 190 207 144 168 116 327 141 195 164 161 168 164 173 195 192 198 192 190 193 196 196 199 194 189 177 169 133 101 92 95 107 120 130 114 111 112 109 102 103 107 110
282 292 261 265 291 350 99 150 215 230 150 138 145 356 134 189 170 173 177 169 181 199 205 200 199 196 197 198 198 202 200 200 194 187 166 130 109 103 109 116 118 114 114 114 108 107 108 113 118
272 313 251 256 231 351 120 180 170 234 126 156 187 189 123 183 191 171 178 181 186 205 211 210 205 203 203 204 203 202 201 202 201 191 188 165 85 91 123 123 116 110 110 110 111 113 114 118 120
219 213 268 29 31 32 117 242 171 168 223 192 188 220 183 200 200 181 186 189 191 211 204 210 208 210 210 206 206 205 202 200 204 204 216 209 216 260 136 134 125 116 111 107 105 107 116 127 129
216 242 31 37 42 43 357 290 267 202 263 207 209 221 227 212 209 196 205 204 204 206 215 205 206 213 208 212 211 206 207 206 214 207 211 221 225 217 212 176 147 136 125 117 114 112 111 116 130
315 242 2 30 40 29 280 301 304 241 243 297 299 243 217 213 217 215 212 209 209 205 213 213 207 213 211 213 218 212 219 210 223 213 218 230 231 218 224 218 192 178 164 163 158 150 147 148 156
222 274 73 256 319 248 286 265 263 276 255 260 257 244 205 225 228 226 221 221 216 219 218 214 204 212 209 221 221 216 218 226 227 220 214 216 232 225 226 229 228 223 221 199 193 184 174 169 167
20 354 280 222 229 220 242 273 269 268 255 245 240 249 241 225 239 227 224 219 218 221 226 222 221 206 213 222 224 222 221 225 229 229 226 224 232 234 233 230 227 230 230 226 214 205 200 189 181
318 292 238 223 201 176 220 283 228 261 260 253 240 245 244 247 231 235 232 234 223 220 224 222 229 216 210 217 227 225 223 231 233 234 229 230 228 231 239 232 223 222 223 222 225 217 211 206 199
229 199 258 1 123 168 159 276 288 194 228 261 245 255 252 252 246 238 236 233 237 226 220 224 229 229 218 214 217 217 224 228 234 235 237 230 229 229 234 232 228 230 230 220 219 220 216 215 208
198 267 215 143 195 125 184 275 349 346 301 270 266 262 260 256 249 250 249 237 232 234 227 227 231 232 226 220 222 220 215 222 231 238 237 236 231 230 233 236 233 234 230 233 229 219 222 222 208
220 225 243 235 190 220 220 249 269 279 277 267 267 267 263 259 255 250 251 253 240 234 233 231 230 233 231 223 226 226 228 227 228 234 239 235 234 234 231 236 235 235 229 234 230 227 224 222 210
294 338 313 309 157 196 243 271 265 270 277 275 269 268 266 263 263 254 255 253 251 235 235 229 227 232 231 226 224 228 230 230 229 236 238 232 234 235 235 232 235 234 244 226 232 224 226 223 211
128 257 277 289 102 161 273 275 274 260 251 257 265 267 267 270 267 261 250 245 246 247 232 227 231 234 236 231 230 232 235 237 239 241 244 244 235 237 234 239 234 237 239 233 226 234 230 214 212
240 241 266 266 302 218 267 268 256 280 241 256 262 264 268 266 268 257 248 245 242 239 244 233 231 235 238 235 232 232 233 237 240 242 242 244 239 233 238 240 244 241 240 236 235 234 242 236 221
251 297 231 263 319 241 134 281 297 294 280 249 256 266 274 274 267 258 238 236 242 243 246 242 234 232 236 236 234 234 236 236 242 248 251 247 242 231 233 239 244 243 233 241 238 237 238 241 235
219 6 58 87 252 308 200 243 251 224 267 247 258 271 281 261 228 205 229 238 236 240 245 247 240 234 233 237 238 237 239 241 244 246 250 251 245 237 230 234 239 241 243 239 245 242 241 237 234
130 86 67 54 218 273 171 213 210 210 237 258 277 294 253 255 255 235 229 227 227 235 245 246 239 235 232 235 238 239 239 241 240 244 248 249 249 243 229 230 236 242 241 245 253 251 244 235 240
190 149 230 308 25 245 78 262 237 194 284 288 278 282 269 242 205 234 249 261 247 236 240 241 236 233 231 233 237 240 242 244 245 247 251 254 253 249 242 234 232 237 238 241 247 249 248 248 252
196 182 175 204 195 264 9 243 256 212 247 272 275 281 251 241 220 234 265 263 248 240 241 242 239 236 236 238 243 245 244 248 250 246 251 254 253 252 249 239 240 236 235 241 240 255 249 254 251
191 213 235 337 70 10 232 271 294 277 243 240 254 272 270 245 255 261 261 238 232 213 190 178 208 229 239 245 248 249 252 251 249 247 248 256 257 254 248 239 238 241 241 237 248 245 253 244 249
185 193 90 231 187 228 263 263 245 288 286 297 327 289 291 261 259 247 236 218 184 157 139 142 157 184 243 259 265 267 264 260 255 251 250 251 258 256 249 241 244 240 239 241 244 244 245 254 242
162 220 213 176 181 181 264 256 357 102 62 15 355 8 354 267 236 249 211 176 167 151 133 135 92 341 302 297 292 291 283 274 265 256 251 249 251 256 252 250 247 241 241 243 246 248 249 246 245
234 211 195 165 230 228 205 254 105 90 93 66 26 23 11 32 285 231 199 186 174 156 204 240 295 305 301 299 301 298 296 287 275 266 257 253 252 254 253 250 246 240 241 244 245 248 243 247 243
Wind_Speed_850mb
4 4 5 13 3 4 9 9 10 12 9 12 16 15 8 18 11 6 35 19 35 32 34 32 29 25 23 19 17 16 15 18 19 20 22 23 23 23 24 25 24 37 27 24 27 36 37 37 39
2 3 7 13 4 4 8 16 9 12 22 16 7 4 8 7 15 21 34 31 36 34 35 33 32 27 22 19 15 12 14 15 16 18 20 22 22 23 22 23 32 35 24 19 21 28 34 37 38
3 4 8 5 6 10 7 6 17 25 17 11 6 3 9 9 14 25 10 38 40 30 34 34 32 28 24 20 15 11 11 12 13 16 18 20 21 21 21 26 33 29 21 16 14 25 31 33 36
8 4 11 5 9 15 9 13 32 21 7 7 1 4 10 11 14 21 26 38 35 31 32 32 31 29 25 22 19 15 12 12 12 14 16 18 19 19 21 25 30 23 17 17 17 24 27 29 32
5 9 7 7 6 9 10 14 15 16 25 22 10 5 13 11 25 23 31 38 34 31 29 30 32 30 27 24 20 15 12 11 10 10 12 15 16 17 19 22 24 21 17 14 17 22 24 26 30
8 7 7 10 9 12 7 13 10 14 20 19 8 8 11 7 14 24 33 39 30 34 29 32 35 31 28 25 23 19 15 10 9 8 10 12 13 14 16 16 15 12 15 18 18 19 21 24 29
6 5 14 16 6 7 9 16 12 13 19 15 9 6 13 12 17 29 31 33 31 30 32 30 37 35 31 28 25 21 17 12 9 7 7 9 11 11 12 12 10 11 15 17 16 18 20 25 29
7 5 14 11 9 4 12 15 2 8 5 23 16 4 11 18 24 27 30 34 33 33 32 29 40 38 36 33 29 24 20 17 12 10 7 7 8 9 10 11 12 14 15 15 16 17 20 23 26
3 6 7 11 9 2 19 8 6 7 7 11 12 6 15 20 25 29 29 34 39 41 36 36 34 37 39 36 32 27 23 20 16 12 9 5 6 5 8 12 13 15 15 16 16 18 19 20 20
6 5 10 15 19 12 14 8 12 6 13 13 15 19 20 22 20 33 39 43 46 44 42 40 38 38 38 38 36 33 31 27 23 20 19 15 9 2 7 14 18 19 19 18 17 16 16 17 17
9 5 11 22 18 12 11 3 15 6 11 22 32 38 31 32 27 33 39 41 46 46 41 46 43 42 41 38 39 41 36 32 30 29 29 22 17 9 10 12 14 15 16 15 15 13 10 8 9
6 15 6 9 7 4 3 10 10 23 30 13 4 9 36 33 37 38 41 43 47 50 48 47 47 47 43 45 45 39 36 38 41 34 31 26 23 19 15 16 16 17 15 14 15 12 12 10 7
6 11 3 3 2 4 9 15 16 35 30 23 29 25 24 33 35 38 40 40 45 50 53 54 55 51 50 53 49 46 40 43 44 41 41 33 31 27 23 21 19 16 19 22 19 19 18 15 12
9 12 11 6 11 8 5 13 7 14 8 25 33 34 34 35 40 39 42 50 53 55 54 55 58 59 56 57 53 54 51 50 50 47 46 44 39 35 32 28 27 28 28 27 26 24 22 20 16
4 8 15 24 18 2 4 13 21 54 34 29 21 29 36 38 42 48 49 53 58 62 61 64 67 65 70 61 55 53 55 57 55 58 50 52 48 42 38 41 38 39 39 32 33 31 28 25 22
8 6 5 8 21 7 7 11 14 10 6 20 23 28 39 45 44 54 55 56 57 62 69 68 72 68 75 74 69 56 50 50 51 55 55 57 55 53 48 47 47 47 45 44 42 37 35 32 27
10 8 14 8 13 8 12 9 8 8 9 18 23 27 30 34 40 46 53 59 65 64 69 75 76 75 73 75 77 73 72 60 57 58 54 59 59 58 56 56 54 54 54 50 46 41 40 39 35
10 8 13 4 12 8 12 20 21 51 49 46 47 47 49 50 51 50 52 59 60 70 68 74 76 78 74 75 78 76 76 75 73 70 65 61 63 64 63 63 65 62 63 61 56 48 46 45 43
14 11 17 16 13 10 13 21 21 38 45 54 53 53 56 59 54 51 58 58 56 65 71 70 76 80 79 79 84 84 83 80 82 82 74 66 69 72 70 69 67 73 60 72 64 54 58 58 55
2 10 16 16 14 4 15 25 31 28 36 54 50 60 64 58 52 44 48 62 65 61 69 73 80 82 81 79 82 86 84 83 82 83 82 75 70 78 77 75 72 76 67 71 72 61 63 63 64
11 14 14 16 6 11 12 15 24 14 32 46 51 58 58 54 53 47 43 56 68 65 62 72 81 81 80 77 80 82 80 80 84 86 85 84 78 82 84 85 80 74 78 71 73 73 65 70 70
11 7 17 7 7 7 6 11 12 25 31 19 55 64 57 44 41 37 39 37 56 63 59 58 72 77 77 75 79 84 87 88 89 86 80 72 76 85 85 88 89 77 77 80 83 72 81 74 78
4 8 6 4 4 12 13 9 13 18 16 20 27 41 39 29 22 22 27 32 42 46 56 53 59 71 75 77 78 79 82 84 86 84 77 73 68 78 88 90 88 85 87 69 79 83 92 83 94
15 9 7 1 3 12 16 15 10 14 9 15 5 13 12 17 17 18 19 20 30 49 48 48 52 59 67 74 76 78 81 83 81 77 79 73 65 65 83 88 90 87 91 87 90 81 99 82 100
5 9 3 4 0 16 3 8 13 10 11 7 21 27 16 12 12 12 13 14 18 22 27 35 41 50 58 66 71 73 77 80 77 75 80 76 68 65 72 84 90 98 93 86 74 82 78 98 100
19 14 11 13 9 9 7 14 10 11 9 17 30 37 21 28 25 24 27 28 23 20 19 19 21 30 41 50 57 63 69 74 73 70 77 76 69 64 64 75 81 79 82 81 83 87 77 81 89
12 17 9 7 4 5 10 16 20 21 25 23 41 39 42 21 20 28 32 25 21 16 12 8 9 14 22 29 38 47 55 61 67 71 72 75 68 62 59 64 70 77 84 78 80 86 85 74 82
10 4 6 5 6 9 13 13 18 21 12 14 12 27 36 29 21 27 26 22 21 21 18 13 8 5 7 13 20 28 36 46 55 62 69 66 68 62 55 60 67 68 75 71 75 73 78 83 85
9 8 10 9 10 10 7 11 5 16 11 14 20 32 28 14 20 22 22 28 26 21 10 6 3 4 7 12 17 24 30 38 44 51 59 64 67 62 54 53 56 63 67 69 79 73 79 71 88
12 21 19 9 8 9 7 23 7 14 14 21 24 27 24 17 5 15 24 28 27 11 5 5 9 13 14 18 24 30 33 39 45 47 52 58 59 58 55 53 54 58 59 66 67 75 70 81 82
Wind_Direction_850mb
157 85 9 300 269 201 120 97 74 95 130 63 37 37 353 32 20 99 144 154 172 184 171 168 166 158 150 143 128 114 97 83 80 79 77 81 88 96 102 98 96 103 98 81 80 84 88 87 87
210 104 359 274 249 225 81 119 145 123 92 100 82 347 308 103 69 130 154 144 158 188 169 171 169 165 159 154 138 110 90 82 83 82 79 77 77 82 89 92 96 98 108 92 83 89 89 85 88
142 129 278 231 290 40 95 84 124 88 108 132 144 198 3 76 93 137 202 151 159 181 172 174 174 170 166 165 157 131 106 98 96 91 81 78 79 82 89 96 102 108 112 97 94 93 86 85 90
98 281 260 290 282 73 40 86 107 118 115 138 79 153 120 146 128 176 166 158 159 171 179 176 180 178 175 175 176 163 133 128 116 106 91 82 79 82 89 109 111 132 134 131 97 92 86 85 93
156 276 269 220 324 97 89 70 139 160 153 156 162 149 122 136 178 172 164 162 165 160 190 184 184 185 182 182 182 175 151 132 131 119 100 90 84 84 97 119 125 149 148 112 106 94 88 89 94
260 263 276 234 218 98 101 140 172 175 140 107 158 282 106 215 190 163 167 163 171 177 185 188 188 188 188 189 190 192 180 166 156 143 117 99 88 88 102 124 136 128 123 125 109 98 93 94 99
269 224 263 298 6 107 149 147 190 207 144 168 116 327 141 195 164 161 168 164 173 195 192 198 192 190 193 196 196 199 194 189 177 169 133 101 92 95 107 120 130 114 111 112 109 102 103 107 110
282 292 261 265 291 350 99 150 215 230 150 138 145 356 134 189 170 173 177 169 181 199 205 200 199 196 197 198 198 202 200 200 194 187 166 130 109 103 109 116 118 114 114 114 108 107 108 113 118
272 313 251 256 231 351 120 180 170 234 126 156 187 189 123 183 191 171 178 181 186 205 211 210 205 203 203 204 203 202 201 202 201 191 188 165 85 91 123 123 116 110 110 110 111 113 114 118 120
219 213 268 29 31 32 117 242 171 168 223 192 188 220 183 200 200 181 186 189 191 211 204 210 208 210 210 206 206 205 202 200 204 204 216 209 216 260 136 134 125 116 111 107 105 107 116 127 129
216 242 31 37 42 43 357 290 267 202 263 207 209 221 227 212 209 196 205 204 204 206 215 205 206 213 208 212 211 206 207 206 214 207 211 221 225 217 212 176 147 136 125 117 114 112 111 116 130
315 242 2 30 40 29 280 301 304 241 243 297 299 243 217 213 217 215 212 209 209 205 213 213 207 213 211 213 218 212 219 210 223 213 218 230 231 218 224 218 192 178 164 163 158 150 147 148 156
222 274 73 256 319 248 286 265 263 276 255 260 257 244 205 225 228 226 221 221 216 219 218 214 204 212 209 221 221 216 218 226 227 220 214 216 232 225 226 229 228 223 221 199 193 184 174 169 167
20 354 280 222 229 220 242 273 269 268 255 245 240 249 241 225 239 227 224 219 218 221 226 222 221 206 213 222 224 222 221 225 229 229 226 224 232 234 233 230 227 230 230 226 214 205 200 189 181
318 292 238 223 201 176 220 283 228 261 260 253 240 245 244 247 231 235 232 234 223 220 224 222 229 216 210 217 227 225 223 231 233 234 229 230 228 231 239 232 223 222 223 222 225 217 211 206 199
229 199 258 1 123 168 159 276 288 194 228 261 245 255 252 252 246 238 236 233 237 226 220 224 229 229 218 214 217 217 224 228 234 235 237 230 229 229 234 232 228 230 230 220 219 220 216 215 208
198 267 215 143 195 125 184 275 349 346 301 270 266 262 260 256 249 250 249 237 232 234 227 227 231 232 226 220 222 220 215 222 231 238 237 236 231 230 233 236 233 234 230 233 229 219 222 222 208
220 225 243 235 190 220 220 249 269 279 277 267 267 267 263 259 255 250 251 253 240 234 233 231 230 233 231 223 226 226 228 227 228 234 239 235 234 234 231 236 235 235 229 234 230 227 224 222 210
294 338 313 309 157 196 243 271 265 270 277 275 269 268 266 263 263 254 255 253 251 235 235 229 227 232 231 226 224 228 230 230 229 236 238 232 234 235 235 232 235 234 244 226 232 224 226 223 211
128 257 277 289 102 161 273 275 274 260 251 257 265 267 267 270 267 261 250 245 246 247 232 227 231 234 236 231 230 232 235 237 239 241 244 244 235 237 234 239 234 237 239 233 226 234 230 214 212
240 241 266 266 302 218 267 268 256 280 241 256 262 264 268 266 268 257 248 245 242 239 244 233 231 235 238 235 232 232 233 237 240 242 242 244 239 233 238 240 244 241 240 236 235 234 242 236 221
251 297 231 263 319 241 134 281 297 294 280 249 256 266 274 274 267 258 238 236 242 243 246 242 234 232 236 236 234 234 236 236 242 248 251 247 242 231 233 239 244 243 233 241 238 237 238 241 235
219 6 58 87 252 308 200 243 251 224 267 247 258 271 281 261 228 205 229 238 236 240 245 247 240 234 233 237 238 237 239 241 244 246 250 251 245 237 230 234 239 241 243 239 245 242 241 237 234
130 86 67 54 218 273 171 213 210 210 237 258 277 294 253 255 255 235 229 227 227 235 245 246 239 235 232 235 238 239 239 241 240 244 248 249 249 243 229 230 236 242 241 245 253 251 244 235 240
190 149 230 308 25 245 78 262 237 194 284 288 278 282 269 242 205 234 249 261 247 236 240 241 236 233 231 233 237 240 242 244 245 247 251 254 253 249 242 234 232 237 238 241 247 249 248 248 252
196 182 175 204 195 264 9 243 256 212 247 272 275 281 251 241 220 234 265 263 248 240 241 242 239 236 236 238 243 245 244 248 250 246 251 254 253 252 249 239 240 236 235 241 240 255 249 254 251
191 213 235 337 70 10 232 271 294 277 243 240 254 272 270 245 255 261 261 238 232 213 190 178 208 229 239 245 248 249 252 251 249 247 248 256 257 254 248 239 238 241 241 237 248 245 253 244 249
185 193 90 231 187 228 263 263 245 288 286 297 327 289 291 261 259 247 236 218 184 157 139 142 157 184 243 259 265 267 264 260 255 251 250 251 258 256 249 241 244 240 239 241 244 244 245 254 242
162 220 213 176 181 181 264 256 357 102 62 15 355 8 354 267 236 249 211 176 167 151 133 135 92 341 302 297 292 291 283 274 265 256 251 249 251 256 252 250 247 241 241 243 246 248 249 246 245
234 211 195 165 230 228 205 254 105 90 93 66 26 23 11 32 285 231 199 186 174 156 204 240 295 305 301 299 301 298 296 287 275 266 257 253 252 254 253 250 246 240 241 244 245 248 243 247 243